RH
20 19 17 16 16 16 15 14 14 14 14 13 13 12 12 12 12 12 11 11 11 11 10 10 10 9 8 8 8 8 8 7 7 7 7 7 8 8 8 8 8 8 8 8 8 8 10 11 13 16 18 22 27 33 40 47 53 58 64 61 58 53 49 53 56 58 58 63 71 78 83 75 60 42 30 28 27 28 35 53 72 87 97 98 99 99
20 20 19 18 18 17 16 15 16 17 18 18 18 18 18 18 18 17 16 16 16 16 16 16 15 14 13 12 11 10 9 8 8 8 8 8 8 8 8 8 8 8 8 8 8 8 10 13 17 22 26 32 38 44 51 58 63 69 76 77 75 71 66 64 63 64 65 67 71 76 81 78 67 52 37 31 28 27 30 42 58 76 91 96 98 99
20 20 18 19 18 18 18 19 20 22 24 26 28 29 28 27 26 25 24 24 24 24 24 23 22 20 19 17 15 14 12 11 10 10 9 8 8 9 10 10 10 10 10 9 9 9 10 13 19 26 34 43 51 59 67 73 76 78 79 80 81 81 81 76 73 71 72 74 77 81 86 87 79 65 48 37 30 27 27 34 46 62 79 91 97 100
21 21 20 21 21 22 24 26 29 32 35 37 38 38 37 35 34 32 32 31 30 30 30 28 27 26 24 23 21 18 17 15 14 12 12 11 11 11 11 12 12 12 12 11 10 10 11 14 22 31 40 54 64 72 80 84 86 85 82 82 83 83 81 78 74 71 70 73 78 86 94 96 92 82 64 48 36 29 26 29 38 50 66 82 92 98
23 24 25 26 28 30 33 36 39 42 44 46 45 44 42 40 40 38 38 37 37 36 35 33 32 31 29 28 26 24 23 21 19 18 16 15 15 14 14 15 15 15 15 14 13 12 12 16 23 32 42 55 66 74 81 84 85 85 82 82 82 83 82 77 70 64 62 67 76 86 96 98 98 92 79 60 45 34 27 27 32 42 54 70 84 94
26 30 33 37 40 42 43 45 48 50 52 52 50 48 46 46 45 44 44 44 42 41 39 37 35 34 33 32 31 30 28 26 24 23 22 20 20 19 19 19 19 18 18 18 17 16 15 17 21 27 36 46 57 65 72 74 76 78 78 78 80 82 84 80 73 66 62 65 73 83 94 97 98 95 86 68 52 40 31 28 30 36 45 60 75 88
34 38 42 46 50 52 53 54 56 58 60 60 56 52 49 50 50 50 50 50 49 46 42 40 38 37 36 36 35 34 33 31 29 28 27 26 26 25 24 24 22 22 22 22 21 20 19 19 20 22 26 33 40 47 53 58 62 66 70 72 74 78 82 83 80 76 70 68 72 79 91 96 97 94 88 72 58 45 36 32 31 34 40 52 66 80
44 48 51 55 58 60 62 64 65 66 68 69 66 62 57 54 53 53 52 52 52 50 46 43 42 41 40 40 39 38 37 36 34 33 33 33 32 32 30 28 26 24 24 24 24 24 24 23 22 22 23 25 28 31 35 38 42 47 52 58 64 71 78 84 86 86 80 76 74 78 88 94 96 94 88 76 63 52 42 36 32 33 37 46 58 72
58 62 66 70 72 73 73 76 74 74 75 75 74 71 65 59 56 55 54 53 52 51 51 49 48 47 46 44 42 41 40 40 41 42 41 41 41 40 38 34 30 27 25 24 24 24 24 26 26 26 26 26 26 26 28 29 30 32 35 40 48 58 70 79 88 92 92 87 84 84 88 94 96 94 89 80 72 62 50 40 34 32 34 41 51 64
74 78 80 84 86 86 85 84 81 79 80 76 76 75 72 66 62 60 60 57 54 52 52 56 56 54 50 46 45 44 43 44 46 49 49 48 48 47 45 40 36 31 28 25 23 22 22 24 25 26 27 28 28 29 30 30 30 30 30 32 38 46 57 70 82 91 95 95 94 93 94 96 96 96 93 86 78 69 58 46 37 32 31 37 46 57
87 89 90 90 90 90 90 89 85 82 80 76 74 74 73 72 70 68 66 65 61 58 56 59 61 60 55 50 49 50 52 50 52 54 56 54 52 51 48 44 40 36 32 28 24 22 20 21 22 24 26 27 29 30 32 33 34 35 35 34 35 38 44 57 70 81 90 92 95 97 97 98 98 97 96 92 84 73 60 49 40 33 29 33 40 51
92 92 92 92 92 92 92 90 85 81 78 77 76 75 74 76 76 75 74 75 72 68 64 63 63 64 61 57 56 58 62 61 62 62 63 62 60 58 54 50 46 42 37 32 28 25 22 21 20 20 22 24 27 30 32 36 38 40 41 39 37 36 38 46 57 68 77 84 90 94 97 98 98 98 98 96 90 79 64 52 42 34 28 30 36 45
93 93 93 92 92 92 90 89 86 82 81 80 80 79 79 80 80 80 80 80 79 77 74 72 70 69 67 66 66 68 70 72 74 74 73 72 70 68 64 60 56 51 45 40 35 31 28 24 22 20 20 23 25 28 32 37 41 44 44 43 42 40 40 42 47 55 65 74 81 88 92 95 97 98 98 98 94 88 74 58 46 36 28 27 32 40
93 93 93 92 92 91 89 88 86 84 83 83 83 84 85 86 86 86 86 84 84 84 82 80 79 79 76 74 76 77 80 81 82 82 81 80 78 76 73 69 65 60 52 46 42 37 33 29 26 24 24 25 27 30 34 38 42 44 46 48 49 49 47 44 45 48 53 62 71 79 85 89 93 96 98 98 97 93 86 70 55 41 30 26 28 34
93 93 92 90 90 89 88 86 85 85 85 86 87 88 88 88 90 90 90 90 89 88 88 88 89 88 85 82 81 82 86 87 88 88 87 85 84 82 78 76 72 66 57 50 44 39 36 33 31 31 32 34 35 38 40 42 44 45 47 51 55 58 58 55 53 51 52 58 64 71 76 80 86 92 97 98 98 96 93 82 66 50 36 28 26 30
86 86 88 87 85 84 85 84 84 86 86 88 89 90 92 91 91 92 92 92 91 91 92 92 92 92 90 88 86 86 87 89 90 92 91 90 87 84 80 80 77 70 60 51 44 39 35 34 36 38 42 45 48 51 52 52 50 49 49 53 60 66 70 68 64 60 58 58 60 61 63 68 74 82 91 96 98 98 96 90 77 62 45 33 26 26
74 72 74 76 80 82 79 81 84 88 88 90 90 91 92 92 92 92 92 92 92 92 93 93 93 93 93 92 90 89 88 90 90 92 92 92 89 85 80 81 79 74 61 52 44 38 35 36 40 46 52 57 61 64 64 62 58 55 53 58 66 76 84 84 80 73 65 59 54 50 49 53 60 70 81 91 96 98 97 93 84 72 56 40 30 25
63 63 68 75 78 78 78 81 85 89 92 92 92 92 92 92 92 92 92 92 92 93 93 92 92 93 93 93 92 91 90 91 91 91 92 92 89 84 78 78 76 71 62 53 44 38 37 40 46 54 60 65 68 70 72 69 64 60 58 62 71 81 90 90 87 82 72 60 51 44 39 40 46 56 69 83 92 96 98 95 89 79 65 49 36 27
58 59 64 71 75 78 82 85 88 90 92 92 92 92 92 91 92 92 92 92 93 93 93 93 93 93 93 93 92 92 92 92 91 92 92 92 91 87 78 75 72 69 63 54 46 42 42 47 53 59 64 68 69 70 71 70 68 65 63 67 76 85 92 92 92 89 85 73 61 50 40 38 41 49 60 73 85 94 97 96 92 86 74 61 48 38
58 62 66 70 77 84 88 90 92 92 92 92 92 92 92 92 92 92 92 92 93 93 92 92 92 92 92 93 92 92 91 88 87 88 92 93 92 88 79 76 73 71 66 56 48 45 50 56 60 62 64 66 66 66 66 69 70 70 70 74 82 90 93 93 94 94 95 93 87 78 66 53 46 44 48 61 74 86 93 95 94 92 87 77 65 56
66 68 69 73 82 89 92 92 92 92 92 91 92 92 92 92 92 93 93 93 93 93 93 92 92 92 92 92 92 90 86 80 82 88 92 92 92 87 78 74 74 74 70 60 54 52 58 62 64 65 64 64 63 62 63 68 71 73 74 81 87 91 93 93 92 90 88 88 91 93 92 83 70 58 51 56 66 77 88 94 96 96 95 92 84 77
71 73 72 79 86 92 92 92 91 91 91 92 92 92 92 92 92 92 92 92 92 92 92 92 92 92 92 92 90 86 78 78 84 91 92 92 90 84 73 74 77 80 76 68 62 61 64 67 66 64 62 62 60 60 60 66 71 76 79 85 90 92 93 92 90 87 81 68 70 82 93 93 90 82 69 63 64 71 80 89 95 98 98 98 96 93
74 75 78 86 90 92 92 92 92 92 92 92 92 92 92 92 91 91 92 92 92 92 92 90 91 91 91 89 84 78 76 84 89 92 91 92 90 86 76 78 83 86 84 79 74 71 71 69 66 62 60 60 58 57 58 64 71 77 84 89 92 93 93 91 87 80 71 60 58 66 81 90 93 92 84 74 68 68 74 82 90 96 99 99 99 98
78 82 89 92 92 92 92 92 92 92 92 92 91 90 90 90 90 90 90 90 91 92 91 90 90 90 84 79 78 81 86 89 90 92 91 92 92 90 85 86 89 90 90 85 81 78 76 71 65 60 60 58 57 57 58 62 68 76 82 88 90 92 92 87 78 67 57 51 51 58 73 87 93 94 92 84 74 69 70 76 84 92 98 99 99 99
88 90 92 93 93 93 92 92 92 91 90 90 89 88 88 88 89 90 90 91 91 91 92 90 92 90 86 89 90 92 91 91 91 92 92 92 92 91 90 90 91 92 92 87 82 78 79 76 70 64 62 60 59 60 62 64 67 71 74 77 80 82 82 74 66 58 51 48 48 53 68 85 94 97 97 93 84 74 70 74 82 90 98 98 98 99
92 92 92 92 92 92 91 90 89 87 85 83 82 83 88 89 90 90 91 91 90 90 90 90 91 92 91 92 92 92 91 92 92 92 92 92 92 92 90 91 91 91 92 88 83 80 84 85 80 74 66 64 64 67 70 69 69 68 66 62 60 60 58 54 50 48 47 46 46 49 60 79 90 97 98 97 92 84 74 74 81 91 99 99 99 98
92 92 91 91 90 88 86 84 80 76 73 69 68 72 83 88 90 90 91 91 90 90 90 90 90 92 92 92 92 92 92 92 92 92 92 92 92 92 92 92 91 91 92 90 89 88 90 90 85 78 71 71 74 77 78 73 69 63 56 49 44 41 39 39 40 43 48 50 48 48 54 72 86 95 98 97 95 91 82 78 83 91 99 100 99 99
90 90 88 87 84 81 78 74 69 64 60 57 56 62 76 86 90 90 90 90 90 90 90 90 90 92 92 92 92 92 92 92 92 92 91 91 92 92 92 91 91 92 92 92 92 91 89 87 83 78 76 80 82 83 79 69 60 51 43 39 36 34 33 34 38 43 51 56 54 50 51 64 79 92 98 97 96 94 90 86 86 89 95 98 100 99
82 80 78 75 72 68 64 60 57 54 52 52 54 60 73 82 87 90 90 90 90 90 90 91 90 90 91 92 92 92 92 92 92 91 90 90 91 92 92 91 92 92 91 92 92 90 86 84 83 82 83 84 83 78 70 58 49 42 37 34 32 32 32 33 36 42 50 54 55 54 52 59 73 87 96 97 97 96 95 92 88 86 89 95 98 99
67 64 62 60 57 55 53 51 50 50 50 52 55 60 70 77 84 88 90 90 90 90 90 90 90 90 90 90 92 92 92 92 90 90 90 90 90 92 92 92 92 92 90 90 92 92 91 86 82 80 82 81 76 69 58 49 43 38 35 34 32 31 31 32 35 40 46 52 56 58 56 58 68 82 93 96 97 96 96 94 90 86 86 92 96 98
56 54 52 49 48 48 48 48 49 50 51 54 58 63 70 78 84 88 90 90 90 90 90 89 88 88 88 88 89 90 92 91 90 89 89 90 91 92 92 90 91 91 89 90 89 89 93 90 84 78 74 72 67 58 49 44 40 37 35 34 33 32 32 32 35 38 43 50 56 59 58 58 66 77 90 95 97 97 96 95 93 92 92 94 94 96
51 50 48 47 47 47 48 49 50 52 54 58 62 69 78 83 86 88 88 87 86 85 85 84 83 84 86 87 88 90 92 90 90 89 89 90 90 91 91 90 90 88 84 86 86 86 90 92 88 81 70 65 58 52 45 42 38 36 35 36 36 35 34 34 36 38 42 49 56 59 59 60 65 75 88 94 96 97 97 96 96 96 96 96 94 94
50 49 48 48 48 49 50 52 54 57 60 63 70 76 82 80 78 77 76 76 74 74 76 78 82 86 89 89 90 90 91 90 90 90 90 90 90 90 90 90 88 85 80 82 84 86 89 91 90 86 74 64 57 51 45 41 38 36 38 40 42 41 39 38 38 40 43 50 56 60 58 58 64 74 86 92 96 96 97 97 97 97 97 96 95 95
50 50 50 51 52 53 54 57 60 63 66 69 73 76 74 71 68 66 65 65 65 66 70 78 85 89 89 90 90 90 90 90 89 87 85 86 88 90 90 89 88 86 84 84 87 89 90 90 90 89 83 71 60 51 47 44 42 40 43 47 49 49 46 43 42 42 44 52 58 60 58 56 62 71 82 91 95 96 97 98 98 98 98 98 97 97
53 53 54 55 56 57 58 61 64 66 69 70 70 70 68 66 65 64 64 63 64 66 69 76 82 87 88 88 89 90 90 85 78 74 74 80 86 88 86 81 79 79 83 85 88 90 90 90 90 90 90 83 72 60 52 51 51 51 52 54 56 56 53 49 46 45 46 53 58 60 57 54 58 68 79 88 93 95 96 96 97 98 98 98 98 98
58 58 58 60 61 62 63 64 66 68 69 70 69 68 67 66 65 64 64 64 65 66 69 74 77 80 82 84 86 86 82 74 67 65 68 74 78 80 76 70 67 69 78 86 89 90 90 91 91 91 91 90 86 77 67 63 62 63 62 60 60 60 58 53 49 48 49 54 58 58 57 54 57 64 76 86 92 94 94 94 95 96 97 98 98 98
64 65 66 66 66 68 68 68 69 70 71 71 71 70 68 67 66 66 65 66 66 68 71 73 74 74 74 75 74 73 69 64 60 60 62 66 69 69 65 60 60 65 79 88 90 90 90 90 91 91 90 92 90 89 86 78 74 71 66 65 65 65 62 57 53 51 52 56 58 58 58 56 58 63 76 87 92 94 94 94 94 96 97 98 98 98
70 71 72 72 72 73 73 73 73 74 74 74 73 72 70 69 68 68 68 68 70 71 73 74 74 73 71 69 66 64 60 58 56 55 56 59 60 60 56 55 58 66 82 88 90 90 90 90 90 91 92 92 92 91 90 86 82 76 71 71 72 72 69 65 61 58 57 57 58 58 60 60 60 62 71 80 86 90 92 94 95 96 97 98 98 98
76 77 78 77 77 77 78 78 77 77 77 76 74 73 72 72 72 72 72 72 72 72 73 74 74 73 70 66 63 60 57 54 52 51 52 53 54 53 52 56 64 74 86 90 90 90 90 90 90 90 92 92 91 90 88 85 82 79 78 80 80 78 76 76 73 69 62 58 56 57 60 64 64 63 65 68 73 77 82 88 92 95 97 98 97 97
82 82 81 81 81 81 81 81 80 79 78 77 76 75 75 76 76 75 75 74 72 71 71 72 72 70 68 65 62 60 57 54 52 50 49 49 49 49 53 63 74 84 90 91 90 90 90 90 91 92 92 92 92 91 90 85 82 82 87 90 90 88 84 84 81 74 65 58 55 56 62 68 72 71 67 63 62 65 72 80 87 92 96 97 97 97
85 84 83 83 82 82 81 80 79 79 80 80 78 77 78 79 78 77 75 73 71 69 69 70 69 67 63 60 58 58 57 56 54 52 50 49 49 52 58 71 82 90 92 92 91 90 90 90 90 92 92 92 92 92 92 88 85 85 89 92 92 92 89 88 85 79 71 61 56 57 63 72 76 78 73 64 58 58 64 73 82 90 95 96 97 97
86 86 85 84 84 82 81 80 81 82 83 82 81 81 81 81 81 81 79 76 72 70 70 71 71 69 63 57 53 52 53 54 55 54 53 52 54 58 66 76 84 90 92 92 92 92 91 90 90 90 92 92 92 92 93 90 86 83 86 90 92 93 92 89 87 84 80 66 58 57 64 74 80 82 78 70 62 58 58 68 79 90 96 96 96 96
87 86 86 85 84 83 83 83 84 84 84 84 83 82 81 82 82 82 82 79 76 73 73 75 76 76 73 64 54 48 46 48 50 52 53 54 57 62 69 76 83 88 90 91 91 91 90 91 91 92 92 92 92 92 92 92 87 83 83 88 90 92 93 92 90 85 78 64 56 55 62 74 81 84 81 73 64 58 57 66 79 90 96 95 95 95
88 88 86 86 86 86 86 86 86 85 85 85 84 83 80 81 82 83 83 81 78 76 76 78 81 82 80 74 64 53 46 44 44 46 48 52 58 64 71 76 80 84 87 89 90 91 92 90 90 89 89 90 91 92 92 91 90 88 86 88 90 92 92 93 92 86 75 60 52 51 58 69 77 80 78 70 62 56 56 66 80 92 94 94 95 96
88 88 88 88 88 88 88 88 87 86 86 86 85 83 80 81 82 83 84 83 80 79 78 83 86 86 86 79 70 61 52 46 42 42 43 49 56 64 71 74 77 79 82 85 88 89 90 90 89 86 84 86 88 90 91 90 90 90 89 89 90 92 93 93 92 90 83 70 60 56 59 66 70 72 71 64 57 52 54 68 82 92 91 91 93 96
89 89 90 89 89 89 89 88 88 88 87 86 85 84 82 82 83 84 85 84 84 82 82 86 88 88 87 81 75 69 62 54 47 43 42 47 53 59 66 70 73 76 78 81 84 86 89 90 90 89 87 86 85 84 82 86 89 92 90 90 90 92 93 93 93 93 91 86 80 76 74 76 76 75 72 63 54 49 53 71 84 90 86 88 92 95
90 90 90 90 90 90 89 89 88 88 88 88 87 85 84 84 84 85 86 86 86 85 84 85 86 86 84 81 78 76 75 68 60 53 50 51 54 58 62 64 67 71 74 78 81 83 85 87 89 90 92 91 89 85 80 81 85 89 90 89 90 91 93 93 93 93 93 92 92 91 91 90 90 87 82 70 58 51 54 68 78 82 82 86 90 95
90 90 90 90 90 90 89 89 89 88 88 89 88 86 85 85 86 87 88 86 86 86 85 84 84 82 80 78 78 79 81 79 74 68 63 62 61 62 62 62 64 66 69 72 76 78 79 80 84 87 90 92 92 90 87 84 85 87 88 87 87 87 89 90 92 93 93 93 93 93 93 94 94 94 91 80 67 56 52 62 70 74 76 82 89 94
90 90 90 90 90 90 90 89 89 89 89 89 89 88 86 86 86 87 87 87 86 86 86 86 85 83 80 77 76 78 80 81 80 78 76 74 72 70 67 65 64 64 65 67 69 71 72 73 76 80 86 90 92 92 92 90 90 89 88 87 86 84 83 84 86 89 92 92 93 93 94 93 93 94 94 90 78 66 58 63 67 69 70 78 86 93
91 91 91 91 90 90 90 90 90 90 90 89 89 88 88 87 86 86 87 87 87 86 87 87 86 85 83 78 76 76 78 80 82 82 82 81 80 77 74 70 69 70 73 73 72 72 72 73 74 76 79 86 90 92 92 92 92 92 90 88 85 83 81 79 79 81 85 88 90 91 92 93 93 94 94 92 86 77 70 69 67 65 64 74 84 92
92 92 92 91 91 91 90 90 90 90 90 90 90 89 88 88 87 86 86 87 87 87 87 87 87 86 84 80 76 74 76 80 84 86 86 83 82 80 78 76 79 83 86 86 84 84 84 84 83 82 80 81 87 92 92 92 92 92 92 88 86 83 81 77 75 74 77 80 82 85 89 91 92 94 94 93 91 87 81 74 67 61 60 70 81 90
Wind_Speed
27 28 28 29 29 29 29 29 29 29 29 29 28 28 28 28 28 27 27 27 27 27 27 27 27 27 27 27 27 27 27 27 28 28 28 29 29 30 30 31 31 32 32 32 33 34 34 35 36 37 38 38 38 37 37 36 36 36 36 37 38 40 41 41 41 40 39 37 36 35 35 35 35 36 37 38 39 38 37 36 36 36 33 28 25 25
28 29 29 29 29 29 29 28 28 27 28 28 28 28 28 29 29 29 28 27 27 26 26 26 27 27 27 26 26 26 26 26 26 27 27 27 28 28 29 29 30 31 31 32 33 33 34 34 34 34 34 34 34 34 34 34 35 34 33 33 33 35 36 38 38 38 37 36 35 35 35 36 37 37 36 37 38 38 38 38 38 38 37 33 28 26
29 29 29 29 29 29 29 28 27 27 27 27 28 28 29 30 31 31 31 30 30 29 29 29 29 29 29 29 28 27 27 26 26 26 26 27 27 27 28 28 29 30 31 32 33 33 34 34 33 32 32 31 31 32 32 33 33 33 32 31 31 31 32 34 36 37 36 35 34 33 34 36 38 38 38 37 37 38 39 39 39 40 40 37 33 28
29 29 29 29 29 28 28 28 27 27 27 27 28 29 31 32 32 33 32 32 32 32 32 32 33 33 33 32 32 31 30 29 28 27 27 27 27 27 27 28 28 29 30 31 32 33 34 34 33 32 31 30 30 31 32 32 32 32 31 30 30 30 31 33 35 36 37 36 34 33 33 34 37 39 39 38 37 37 38 39 40 41 41 41 38 33
27 28 28 28 28 28 28 27 27 27 28 28 29 31 32 33 33 33 33 33 34 34 34 34 34 34 35 35 34 34 33 32 31 30 29 28 28 28 28 28 28 28 29 30 31 32 33 34 33 32 32 31 31 32 32 33 33 33 32 31 31 31 31 32 35 37 38 37 35 34 33 33 34 37 39 39 38 37 37 38 39 41 42 42 41 38
26 26 26 27 27 27 28 27 27 28 29 30 31 33 34 34 34 34 34 34 34 35 36 36 35 35 35 35 35 35 34 34 33 32 31 30 30 29 29 28 28 28 29 29 30 31 33 33 34 34 34 34 34 35 35 35 35 35 34 33 32 32 32 32 33 35 37 37 37 36 35 33 32 34 37 38 38 37 37 37 38 39 41 42 43 41
26 25 26 26 27 27 27 27 27 27 29 31 33 35 35 35 34 34 34 34 35 36 37 37 37 36 36 36 36 36 35 35 34 33 33 32 31 31 31 30 29 29 29 29 29 30 32 33 34 35 36 37 37 38 38 39 38 38 36 35 34 34 33 32 32 33 35 37 39 39 38 35 33 32 34 37 38 37 37 36 37 38 39 41 42 43
26 27 27 27 28 29 28 27 27 28 29 31 33 35 36 36 35 35 35 35 35 36 37 38 38 37 36 36 36 36 36 35 35 34 33 33 33 33 33 32 31 31 30 29 29 30 31 32 34 35 37 38 39 40 40 40 40 40 40 39 37 36 34 33 33 33 34 36 39 41 41 38 36 34 34 36 37 37 37 37 36 37 38 40 41 42
27 28 29 28 28 29 29 28 28 28 29 30 32 33 35 36 36 36 36 36 36 36 36 37 37 37 37 36 36 36 36 35 34 34 33 33 34 34 34 34 34 33 32 31 30 30 30 31 32 34 36 37 38 39 39 39 40 40 40 40 39 38 36 35 34 33 34 35 37 39 40 39 38 37 36 36 37 37 37 37 37 37 38 39 40 42
28 28 29 29 27 26 27 28 28 28 29 30 30 30 31 33 35 37 37 37 36 36 36 35 35 36 37 37 36 36 36 36 34 33 33 33 34 35 35 36 36 35 34 33 32 31 31 31 31 32 34 35 37 38 38 38 38 38 38 38 38 38 37 36 36 35 34 34 35 36 37 38 38 38 38 38 38 38 38 38 38 38 38 39 40 41
27 27 27 27 26 26 25 26 27 28 29 30 30 30 29 30 32 35 37 37 37 37 36 35 34 35 37 38 37 36 35 35 35 34 34 35 36 36 37 37 37 37 36 36 34 33 32 32 31 32 32 34 35 36 37 37 37 37 36 36 36 37 37 37 37 36 35 35 35 35 36 36 36 37 38 39 40 40 40 40 39 39 39 39 40 41
25 25 24 24 25 25 26 26 27 28 29 29 30 30 29 30 31 33 35 35 35 35 36 36 35 35 35 36 36 35 34 34 34 35 35 36 37 38 38 39 39 38 38 37 36 35 34 33 33 32 32 33 34 34 35 35 35 35 35 35 35 35 36 37 37 38 37 37 36 36 36 35 35 35 36 38 40 42 42 41 41 40 39 39 40 41
24 23 23 24 24 25 25 26 27 28 27 28 28 29 30 31 32 32 32 32 32 33 35 36 36 35 34 34 34 33 32 32 33 34 35 37 37 37 38 39 39 39 39 39 38 37 36 35 34 34 33 33 33 33 33 33 34 34 33 33 33 33 34 35 36 37 38 38 38 37 37 36 35 35 35 37 39 41 43 43 42 42 41 40 40 41
23 23 24 24 24 24 25 25 26 26 27 27 28 29 31 31 31 31 31 32 32 33 34 35 36 35 34 33 32 31 30 30 32 34 35 36 36 36 37 38 39 39 39 40 39 38 37 36 35 34 34 33 33 32 32 32 32 32 32 31 31 31 31 32 33 35 36 38 38 39 38 38 37 36 35 36 38 40 42 43 43 43 42 41 41 41
24 24 24 24 25 24 24 24 25 26 27 27 29 30 31 31 30 30 30 31 32 33 33 33 34 34 33 31 30 29 29 29 31 33 35 36 36 36 36 38 39 39 39 40 40 38 36 35 34 34 34 33 33 32 32 32 31 31 30 30 30 29 29 29 30 31 34 36 38 39 39 39 38 37 36 36 36 38 40 42 43 43 43 42 41 41
25 25 24 25 25 25 24 24 25 26 27 28 29 29 30 30 29 29 30 31 32 32 32 32 33 34 32 30 28 28 28 30 31 32 33 35 36 36 36 37 39 40 40 40 39 38 36 34 33 33 33 33 33 32 32 31 31 30 30 30 30 30 29 29 29 30 31 33 36 38 38 39 39 38 37 36 35 36 37 39 41 43 43 43 42 41
27 27 27 27 26 25 26 26 25 26 27 28 28 28 28 29 30 30 31 31 31 31 30 30 31 32 32 31 29 28 28 31 33 34 34 35 36 36 36 36 38 39 40 39 38 37 35 34 33 33 33 33 33 33 33 32 31 30 30 30 30 30 29 29 28 29 29 31 33 35 37 38 39 39 38 37 35 34 34 37 39 41 42 43 43 42
27 26 26 26 26 26 27 26 26 26 26 27 27 28 29 29 30 31 32 31 31 31 30 30 30 30 30 32 32 31 30 32 34 36 36 37 36 36 36 36 37 39 40 39 38 36 34 33 32 33 33 34 34 34 34 33 31 30 29 29 28 28 28 28 27 28 28 29 31 32 34 36 38 39 39 38 35 33 32 34 36 38 40 41 41 41
26 25 25 26 27 27 26 26 26 26 26 27 28 30 31 32 32 32 32 31 31 31 31 32 32 32 32 33 35 35 34 33 34 35 35 36 35 35 35 36 37 38 38 38 37 35 33 32 32 33 33 34 35 35 34 33 31 30 28 27 26 26 25 26 26 27 27 27 28 30 31 33 36 38 39 39 36 33 31 31 33 35 37 38 39 39
24 24 24 25 26 27 26 26 26 26 27 29 31 32 33 34 34 33 31 31 32 33 33 33 33 34 36 37 37 36 35 34 34 33 33 33 33 33 35 35 36 36 37 37 36 34 33 33 33 33 34 35 35 35 34 33 31 29 27 26 24 24 24 25 26 27 27 28 28 28 29 31 33 36 38 39 38 35 32 30 31 32 33 34 36 36
23 24 24 24 25 26 26 26 26 27 28 30 32 33 34 34 34 33 32 32 33 33 33 33 35 37 38 39 38 37 36 34 32 30 30 30 31 32 34 35 35 35 35 36 35 34 33 34 34 35 35 35 35 35 33 32 30 28 26 24 23 23 24 25 26 27 28 28 28 28 29 30 31 34 36 38 39 37 33 30 29 29 30 31 33 34
22 23 24 23 24 24 26 27 28 28 29 30 31 32 32 33 33 34 33 33 34 34 34 35 36 38 39 39 38 37 35 32 28 27 28 28 30 33 35 35 34 33 34 35 35 34 34 35 35 36 36 36 36 35 33 31 28 26 24 23 23 23 24 25 26 27 29 30 30 29 28 29 30 32 34 37 38 38 35 31 29 28 29 30 31 33
21 23 23 23 23 24 25 26 27 28 29 29 30 32 33 33 34 34 35 34 34 35 35 36 37 37 38 39 38 36 33 29 25 24 25 27 30 32 34 33 32 32 33 34 35 35 35 36 36 37 37 37 37 35 32 30 28 26 25 24 24 25 26 27 28 29 30 31 31 30 28 27 28 29 31 34 37 37 35 32 30 28 28 29 30 32
21 22 22 22 22 23 24 26 27 28 29 31 32 33 33 33 32 32 32 33 33 34 34 35 36 37 38 37 35 32 29 26 23 22 24 26 29 31 32 31 31 31 33 34 35 35 36 37 38 38 38 38 37 35 32 30 29 28 27 27 27 27 28 29 30 31 31 32 31 30 28 26 25 26 29 32 34 36 36 33 30 28 27 27 29 31
20 20 21 21 22 23 24 26 28 29 31 32 33 33 32 30 29 29 29 30 31 32 32 33 34 35 35 32 30 28 27 25 23 22 23 25 28 30 31 30 29 30 32 34 36 37 38 39 39 39 39 39 37 34 31 30 30 30 30 30 30 31 31 32 32 32 32 31 31 30 28 25 24 23 25 28 32 34 35 33 30 27 25 25 27 30
18 19 20 22 24 25 27 29 30 32 32 33 32 30 29 27 27 27 28 29 29 29 29 30 31 32 32 31 29 28 26 25 23 22 23 24 27 30 30 29 29 29 32 35 37 38 38 38 38 39 39 38 36 33 31 30 30 31 32 33 33 34 34 34 33 32 31 30 30 30 29 26 23 21 21 24 28 32 34 33 30 25 22 21 24 27
19 21 23 25 28 30 32 33 34 34 34 32 30 27 25 24 25 26 27 27 27 27 27 29 30 31 31 29 28 28 26 24 22 21 22 24 27 28 29 29 29 30 32 35 36 36 36 36 37 38 38 36 34 31 30 31 32 33 34 35 35 35 34 33 32 30 29 29 30 30 29 27 23 20 17 19 23 28 32 32 30 26 21 19 21 23
23 26 28 30 32 33 34 35 34 34 33 31 28 25 23 22 23 24 25 26 26 26 27 28 29 30 30 29 29 29 28 25 21 19 21 23 26 28 29 30 30 31 32 34 35 36 36 36 36 36 34 33 31 30 31 33 35 36 36 36 35 35 34 32 31 30 29 29 30 30 30 28 25 20 16 15 18 23 27 30 29 27 23 20 19 20
28 30 31 32 33 33 33 33 32 31 30 29 27 24 22 21 22 23 25 26 27 26 27 27 28 29 30 31 31 31 29 25 21 19 22 24 27 29 30 30 30 31 32 33 35 38 38 36 34 32 31 31 31 33 35 37 39 39 38 37 36 35 33 32 31 30 30 30 30 30 30 29 27 22 17 13 13 17 22 26 28 27 25 22 21 20
30 31 31 31 31 31 30 30 30 29 28 27 25 23 22 21 22 23 24 26 26 26 27 27 29 29 29 31 31 29 27 24 22 23 25 27 29 30 30 29 30 31 32 32 33 34 34 35 34 32 31 32 35 38 41 42 42 41 40 39 37 36 34 32 31 31 31 31 30 30 29 29 28 24 19 13 11 13 18 22 24 25 25 24 23 22
30 30 30 30 29 28 28 28 28 28 27 26 24 23 22 21 21 22 23 25 27 28 28 29 30 29 29 29 28 26 25 26 27 27 27 27 28 30 30 30 31 33 33 31 29 29 30 33 35 36 36 37 40 43 44 44 43 42 41 40 38 37 34 33 32 31 31 30 30 29 29 28 28 25 20 14 11 13 16 18 20 22 23 24 23 23
29 29 29 28 28 28 27 27 27 26 26 25 24 22 21 21 21 22 24 26 28 29 30 30 30 29 28 27 27 27 27 29 30 29 27 26 28 31 32 32 33 34 34 31 29 28 27 30 34 39 41 43 44 45 45 44 43 42 41 40 39 37 35 33 32 31 30 30 29 28 27 27 26 25 20 14 9 10 13 15 16 18 21 23 23 23
27 27 27 27 27 26 26 26 26 25 25 24 23 22 22 22 23 24 25 27 27 28 28 27 27 27 27 28 28 29 29 29 28 27 25 26 29 32 34 33 33 34 34 33 31 30 29 30 33 38 42 44 45 45 45 44 43 42 41 40 39 37 35 33 31 30 30 29 28 27 26 26 25 23 19 14 10 7 9 12 14 16 18 20 21 21
26 26 26 26 26 26 25 25 25 25 24 24 23 23 23 24 24 24 25 25 25 24 24 23 23 24 26 27 29 30 30 30 29 28 27 28 31 33 35 34 33 33 33 33 32 31 31 31 32 34 38 41 43 44 44 44 43 41 40 39 38 36 34 32 31 30 29 28 27 26 25 24 23 21 18 15 14 11 7 8 12 15 17 19 19 19
25 25 25 25 26 25 25 25 25 24 24 23 23 24 24 24 24 24 23 23 23 22 22 22 22 23 25 27 29 30 31 33 33 31 29 29 31 33 35 36 35 34 33 33 33 32 31 32 32 33 34 37 40 42 43 42 42 41 40 38 37 35 33 31 30 29 28 27 26 25 24 23 22 21 19 18 18 17 12 7 8 13 16 17 18 18
25 25 25 25 26 26 26 25 25 24 24 24 24 24 24 24 24 23 23 23 23 22 22 22 23 24 25 27 28 31 33 35 34 32 30 29 31 33 35 36 36 35 33 33 32 31 30 31 32 32 32 33 35 38 40 41 40 40 39 38 36 34 32 30 29 28 27 26 26 25 23 22 22 21 20 20 20 19 16 12 6 6 11 13 14 15
25 25 26 26 26 26 26 25 25 25 24 24 24 24 24 24 24 23 23 23 23 23 23 23 24 24 25 26 28 31 33 34 34 32 30 30 31 32 34 35 35 34 32 31 30 30 30 31 31 31 31 30 30 32 36 38 39 39 39 38 36 34 32 29 27 26 26 25 25 24 23 22 21 21 21 21 20 19 16 14 10 5 4 7 9 11
25 26 26 26 26 26 26 26 25 25 25 25 25 25 25 25 24 24 24 23 23 23 23 24 24 24 25 26 27 29 31 32 32 31 30 30 31 32 32 33 33 32 30 28 28 29 30 30 31 31 31 30 31 32 34 36 37 38 38 37 36 34 32 29 28 26 25 24 24 22 21 20 20 20 21 22 21 19 17 14 11 7 5 6 8 9
25 26 27 26 26 26 26 26 25 25 25 25 25 25 26 26 25 25 24 24 24 23 23 23 24 25 25 25 25 26 27 28 29 29 29 29 30 30 30 29 29 28 27 26 26 27 29 30 30 31 31 31 32 33 33 34 35 36 37 37 37 35 32 30 29 27 25 23 22 21 20 19 18 19 20 22 22 20 18 15 12 10 8 8 10 12
26 26 27 26 26 25 25 25 25 26 26 26 26 26 26 26 26 25 25 24 24 23 23 23 24 24 24 24 23 23 23 24 25 25 26 26 26 26 25 25 25 25 25 25 26 27 29 29 30 31 31 32 32 33 33 33 33 34 35 37 37 36 34 32 29 27 24 22 21 20 19 18 17 17 18 20 21 20 18 16 15 14 13 12 11 12
26 26 27 26 26 26 26 26 26 26 26 26 27 27 27 26 26 26 26 25 25 24 24 24 24 25 25 24 23 21 21 20 20 20 21 21 21 20 20 21 21 22 24 25 26 27 28 29 30 31 31 31 32 32 32 32 31 32 33 35 36 37 35 33 30 27 24 21 19 19 19 18 17 16 16 17 18 18 17 16 16 16 16 14 12 12
26 26 26 26 27 27 27 27 27 26 26 27 27 27 27 26 26 26 26 26 25 25 24 24 25 26 27 25 23 21 20 18 17 17 17 16 16 17 17 18 19 21 22 24 26 27 28 29 29 30 30 30 30 31 31 30 30 30 31 32 34 35 35 33 30 26 24 21 19 17 18 18 17 16 16 16 16 16 15 15 16 16 16 14 12 11
26 26 26 27 27 28 28 28 28 28 27 27 27 27 26 26 25 25 26 26 26 25 24 24 25 27 28 28 26 23 20 18 16 15 15 14 14 15 16 17 18 19 21 23 25 27 28 28 29 29 28 27 27 28 29 29 29 28 29 30 32 33 34 33 30 25 22 19 17 16 16 17 17 17 16 15 15 14 14 14 14 15 15 13 12 11
26 27 27 28 28 28 28 28 28 28 28 28 28 27 27 26 25 24 25 25 25 24 24 24 25 27 29 29 28 26 23 20 17 15 14 14 14 15 16 17 18 19 21 23 25 27 28 29 29 28 27 25 25 25 26 27 27 28 28 29 30 31 32 32 29 26 22 18 16 15 16 17 17 17 17 16 14 13 13 13 14 14 13 12 11 11
27 27 28 28 28 28 28 28 28 28 28 28 28 28 27 26 25 25 25 25 24 24 24 24 25 27 29 30 29 28 26 23 20 17 15 14 14 15 17 18 19 20 22 23 24 26 27 29 29 28 26 24 24 23 24 25 26 27 27 28 29 30 31 30 28 25 23 20 18 16 16 17 18 19 18 17 15 13 12 12 13 13 12 11 10 10
27 28 28 28 28 28 28 28 28 28 28 29 29 29 28 27 26 25 25 24 24 24 24 24 25 27 29 30 29 29 29 27 24 21 18 16 16 17 18 20 21 22 23 24 25 26 27 27 27 26 25 24 23 23 23 23 24 25 27 28 29 29 29 28 26 24 22 21 19 18 17 18 19 20 20 19 16 14 12 12 13 13 12 11 10 10
27 28 28 28 28 28 28 28 28 28 29 29 29 29 28 27 27 26 25 25 25 25 25 25 25 26 28 29 29 29 29 29 27 25 22 20 19 20 21 22 23 24 25 26 27 28 28 27 26 24 23 22 22 22 22 22 23 24 26 27 28 28 28 27 25 22 20 20 20 19 19 19 20 20 20 20 18 16 14 13 12 12 12 12 11 10
27 28 28 28 28 28 29 28 29 29 29 30 29 29 28 27 27 26 26 26 25 25 26 26 26 27 28 28 28 29 29 29 28 27 25 24 23 23 24 24 25 26 27 27 28 28 28 27 26 24 21 20 20 20 21 22 23 24 26 27 27 27 26 26 24 22 21 20 20 20 20 20 20 20 20 20 20 18 16 14 13 12 12 12 12 11
27 27 28 28 28 29 29 29 29 29 29 30 29 29 28 28 27 26 26 26 26 26 27 27 28 28 29 29 29 28 28 29 28 28 27 27 27 27 27 27 27 28 28 29 29 29 29 28 27 24 22 19 18 18 20 21 23 24 26 27 27 26 26 25 25 24 23 22 21 20 20 19 19 18 18 19 19 19 18 16 15 13 13 13 13 12
27 27 28 28 28 29 29 29 29 29 29 29 29 29 29 28 28 27 27 27 27 28 28 28 28 29 30 30 29 29 29 29 29 29 29 29 30 30 30 30 30 31 31 31 31 30 30 29 28 26 23 19 17 16 18 20 22 24 26 26 26 26 26 26 26 26 25 24 22 20 19 18 17 16 16 17 18 18 18 18 17 15 14 13 13 11
27 28 28 28 28 28 28 28 28 28 28 28 29 29 29 29 29 28 28 27 28 28 29 30 29 29 30 30 29 29 28 29 29 30 31 31 31 32 33 33 33 33 32 32 32 31 31 30 29 28 26 22 18 16 16 18 21 23 25 26 27 27 27 27 26 25 24 23 21 20 19 18 17 16 16 16 16 17 18 18 18 16 15 13 13 11
Wind_Direction
315 317 318 319 320 320 321 322 322 322 322 322 321 321 322 322 323 323 324 323 322 321 320 319 318 317 316 316 315 315 314 313 312 312 311 311 310 310 310 309 309 307 305 303 300 297 293 291 289 288 287 288 289 291 293 293 293 293 292 287 281 277 275 275 276 276 276 275 275 275 275 275 274 271 270 271 273 275 274 269 264 263 264 265 263 259
317 318 319 320 320 321 321 322 323 324 324 324 325 326 327 328 329 329 330 329 329 327 326 325 325 324 323 322 321 320 319 318 317 316 315 315 314 314 314 313 312 311 309 306 303 300 297 294 293 292 292 294 295 295 296 296 295 294 294 293 288 283 279 276 275 275 274 273 272 272 273 274 273 271 269 267 268 270 272 270 266 263 262 263 262 259
318 319 319 320 320 321 322 323 325 326 327 328 329 330 332 332 333 334 334 334 333 333 332 332 331 330 329 329 328 327 326 324 323 321 320 319 319 318 318 317 315 313 311 308 305 302 299 297 296 297 297 299 300 300 300 299 296 294 292 290 288 285 282 277 274 272 272 271 270 270 272 273 274 273 270 267 265 265 268 269 267 264 262 261 260 259
317 319 319 320 320 322 324 326 328 329 331 331 332 333 334 334 334 335 335 335 335 334 334 334 334 333 332 331 331 331 331 330 329 327 326 324 323 322 321 320 318 316 313 310 307 304 301 299 299 299 299 301 301 300 300 298 296 294 291 287 284 282 279 276 273 270 268 267 266 267 269 271 273 272 270 267 265 264 264 265 266 265 263 261 259 258
317 318 319 321 322 324 326 328 330 332 332 332 332 333 334 334 335 335 336 335 335 334 333 333 333 332 332 332 332 332 332 332 331 331 330 329 328 327 326 324 322 319 316 313 309 306 303 301 300 299 298 298 297 297 296 294 293 291 289 285 281 279 276 274 271 267 265 264 263 263 266 270 271 270 268 266 265 264 262 262 263 264 264 262 259 257
316 318 320 322 324 326 328 330 332 333 333 332 333 333 334 335 336 336 335 334 333 332 331 331 331 331 330 330 331 331 331 331 331 331 331 331 331 330 329 328 326 323 319 316 312 308 305 303 301 300 298 296 294 294 293 291 289 288 287 284 281 278 276 274 270 266 264 262 261 261 264 268 269 267 264 263 263 263 262 261 261 263 264 263 260 257
317 319 322 325 327 329 330 332 333 334 334 333 334 335 336 336 336 335 334 333 331 330 330 329 329 329 329 329 329 330 330 330 330 330 331 331 331 332 331 330 328 325 322 318 314 310 307 304 302 301 299 298 296 295 294 292 291 290 289 286 282 279 277 275 271 267 263 260 258 259 262 267 268 265 261 260 261 261 261 260 260 261 263 263 261 258
320 323 326 329 331 332 333 333 334 335 335 334 334 335 335 335 334 333 332 331 330 329 329 328 328 328 328 328 328 328 328 329 329 329 330 331 331 331 331 330 328 327 324 321 317 312 308 305 302 301 300 300 300 300 299 298 296 295 292 289 286 282 278 274 271 269 265 261 258 258 261 265 267 265 260 259 259 260 260 259 258 258 260 262 261 259
326 328 331 333 334 334 333 332 333 334 335 334 333 333 333 333 332 331 330 329 328 328 328 328 327 326 326 326 326 327 327 327 328 329 329 329 329 329 329 328 328 327 325 323 319 315 311 307 303 301 301 300 301 302 303 303 302 300 297 294 290 286 281 277 275 273 269 265 261 260 261 264 266 265 262 259 258 258 259 258 257 257 257 259 260 258
331 332 332 333 333 332 330 328 329 331 332 332 331 331 332 331 331 329 328 327 327 327 327 327 326 325 324 324 325 326 326 327 327 327 328 328 327 327 327 327 327 326 326 325 323 319 315 310 306 303 301 301 302 303 305 305 305 303 301 297 294 290 286 282 279 277 274 270 265 263 262 263 264 264 262 260 258 257 257 257 257 256 255 255 256 257
331 331 330 329 328 327 326 325 326 328 329 330 330 330 330 330 329 328 326 325 326 327 326 325 323 323 323 323 324 325 326 326 326 326 326 326 326 326 326 326 326 326 326 326 325 322 319 315 310 307 304 302 303 304 305 306 306 305 303 300 297 293 288 284 280 278 276 274 270 265 262 261 261 261 261 260 258 256 255 255 255 255 254 253 253 254
327 326 324 323 322 323 323 323 324 326 328 328 329 328 328 328 328 327 325 323 324 324 324 323 322 321 322 323 324 325 326 326 325 325 325 325 325 325 325 325 325 326 327 327 326 325 322 319 315 311 308 306 305 305 306 307 307 306 305 302 298 294 289 285 281 279 278 277 274 269 265 262 261 260 259 259 258 257 256 254 254 254 253 252 251 251
322 321 319 318 318 319 320 322 323 325 326 327 326 325 324 325 326 326 324 322 321 322 322 321 321 321 321 322 324 325 325 325 324 323 323 323 323 323 323 323 324 325 326 327 327 326 325 322 318 314 311 309 308 308 308 309 310 309 307 304 301 297 292 287 283 281 280 279 277 273 269 266 263 262 260 259 258 258 257 255 254 253 253 252 250 249
317 316 316 316 316 317 318 321 322 322 323 322 322 322 322 323 325 325 323 321 320 321 322 320 319 319 320 321 323 324 324 323 322 321 320 320 320 321 322 321 321 323 325 326 326 326 326 324 320 317 315 314 313 313 313 314 314 313 311 309 307 303 298 292 288 285 283 281 280 277 273 269 267 264 262 260 258 257 256 255 254 253 252 251 250 248
312 312 312 313 313 315 317 318 319 319 318 319 320 321 322 323 323 323 322 320 320 321 321 319 318 317 317 318 320 322 323 321 320 319 318 317 318 319 320 320 320 321 323 324 325 325 326 324 322 320 319 318 318 319 319 319 319 317 316 315 313 310 305 300 295 290 288 286 284 281 277 273 269 266 263 260 257 255 254 254 254 253 252 251 250 248
308 309 309 310 311 313 314 315 316 316 316 318 319 321 322 321 320 320 319 318 319 320 319 318 317 315 314 315 317 320 321 320 318 316 315 315 316 318 320 319 318 319 321 323 324 325 326 325 324 323 323 322 323 323 323 323 321 320 319 318 316 313 310 304 299 294 290 287 286 284 281 277 273 269 264 260 257 253 252 252 253 253 252 252 250 248
309 309 309 309 310 311 313 314 314 315 316 318 319 319 319 318 318 317 317 316 316 317 315 314 313 312 312 312 313 316 318 318 316 315 314 313 315 318 320 319 317 318 321 322 323 325 326 325 325 324 325 325 325 326 325 324 323 321 320 319 318 316 313 308 302 296 290 288 287 286 284 281 277 272 267 262 257 253 250 250 250 252 252 252 250 248
308 309 309 309 309 310 312 314 315 315 316 317 318 317 317 316 316 316 315 314 313 313 312 311 309 307 306 306 308 310 313 314 315 314 314 314 315 318 319 318 317 318 320 322 323 324 325 325 325 325 325 326 326 326 325 325 324 322 321 320 319 318 316 312 307 301 295 290 288 287 286 284 280 275 270 264 260 255 251 248 249 250 251 251 250 248
306 307 307 308 309 310 312 313 314 315 315 315 316 317 316 316 316 315 314 313 311 310 310 308 306 304 302 300 302 306 309 311 313 315 315 314 315 316 317 317 317 318 319 321 323 324 324 324 325 325 325 325 325 326 326 326 325 323 322 320 319 319 319 317 313 308 303 297 293 290 288 285 281 276 272 267 263 259 255 250 248 249 250 250 249 247
303 304 305 308 311 312 311 311 312 314 315 316 317 317 316 316 316 315 312 311 310 309 307 306 304 303 301 300 300 303 307 311 314 316 316 314 313 313 314 315 316 316 318 320 322 323 324 324 324 324 323 323 324 325 326 326 326 324 322 320 320 320 321 319 317 313 309 306 301 297 294 289 285 280 276 271 266 263 260 254 250 248 248 249 248 245
300 302 305 310 312 312 309 310 312 315 317 318 319 318 317 316 314 313 311 309 307 306 305 304 303 303 302 300 300 303 308 313 317 318 316 312 309 309 311 313 314 315 316 319 322 323 323 323 323 322 321 322 323 324 326 327 327 325 323 321 320 321 321 321 319 318 316 313 308 302 297 294 291 287 282 276 270 266 262 256 251 248 247 246 245 243
299 302 306 312 314 312 310 312 314 316 317 317 316 315 314 312 310 309 307 306 305 304 303 303 303 304 303 301 301 305 309 314 317 318 314 308 306 307 310 313 314 314 314 317 320 322 322 322 321 320 320 320 321 322 325 327 328 327 325 322 321 320 320 319 319 318 318 316 313 307 301 296 292 289 284 278 273 268 264 259 254 250 247 245 243 242
300 304 310 314 315 313 311 310 311 311 312 311 310 309 307 306 305 304 303 303 303 303 304 305 304 302 301 300 302 306 310 314 315 313 309 305 304 306 310 313 313 312 312 314 317 319 320 320 320 319 319 319 320 321 323 326 327 328 326 323 320 318 317 317 317 317 317 317 316 311 305 299 294 290 287 281 275 269 264 261 257 252 247 244 242 241
307 311 314 314 311 308 306 305 305 305 306 305 305 304 303 303 302 302 302 304 305 305 305 304 302 300 300 301 304 307 309 311 311 309 306 303 303 305 309 311 311 310 310 312 314 316 318 318 319 319 319 319 320 321 322 324 325 326 326 323 320 317 316 315 315 315 316 317 317 314 307 300 294 290 288 283 277 271 266 262 259 255 249 244 242 241
312 312 310 305 300 298 297 298 299 300 302 303 305 306 306 305 305 305 306 306 307 306 306 304 303 303 303 305 305 306 307 308 308 307 305 302 302 304 307 309 308 307 307 310 313 315 317 317 317 318 318 319 321 322 322 322 323 323 323 321 319 317 316 315 314 314 315 316 317 315 310 302 293 288 286 284 279 273 267 264 261 256 249 244 242 241
307 301 295 291 290 291 292 294 296 299 302 305 307 308 308 307 307 306 306 306 307 307 308 308 307 306 306 306 305 305 306 308 308 307 306 304 303 304 306 307 306 306 307 309 313 315 315 314 314 315 316 319 321 322 322 321 320 319 319 319 319 317 316 315 314 313 314 316 317 316 312 305 296 289 285 283 280 276 271 266 261 254 248 242 240 240
295 289 287 287 289 292 294 297 299 302 305 307 308 308 306 305 305 305 305 306 307 309 311 310 308 307 307 305 304 305 307 308 308 307 308 306 303 302 303 304 306 307 308 310 312 312 311 310 310 312 314 317 319 319 319 318 317 317 318 319 319 318 317 316 315 315 315 317 318 318 314 307 300 292 286 283 280 277 273 267 261 254 248 244 240 240
290 289 290 292 294 296 299 301 303 306 308 308 308 306 303 301 301 302 303 304 306 309 311 309 308 307 308 306 306 307 307 307 306 307 306 304 301 300 301 305 308 310 310 310 310 309 308 307 308 311 313 314 315 314 314 315 316 317 319 319 320 319 318 318 318 318 318 319 320 320 316 310 302 295 288 283 281 279 275 269 262 257 254 249 243 240
294 295 296 297 299 301 303 305 307 308 309 309 307 304 300 296 297 299 302 305 307 308 307 305 305 306 307 307 307 307 306 305 304 305 305 304 302 302 304 308 310 311 311 310 310 309 309 308 308 309 310 310 310 310 311 314 317 319 320 321 321 320 319 319 319 319 320 321 322 321 318 311 304 297 289 283 280 277 273 268 264 261 259 255 248 241
302 302 303 304 306 308 309 310 310 311 311 310 308 305 300 297 298 301 304 306 305 304 303 302 303 304 306 307 307 306 304 302 302 304 306 307 306 305 307 309 309 309 310 311 311 310 309 308 308 308 307 307 308 309 312 315 317 319 321 321 321 320 320 320 319 319 320 321 322 322 319 313 306 300 292 282 271 265 265 265 265 265 264 260 253 244
310 310 311 312 313 314 314 314 314 314 314 314 312 309 306 304 303 303 302 300 298 298 299 299 300 302 304 305 305 303 301 301 303 307 311 310 308 306 307 308 308 308 310 310 310 308 307 307 307 307 307 308 309 311 313 315 317 319 320 321 321 320 320 319 319 318 318 320 321 322 320 314 307 301 297 287 266 252 252 257 262 265 265 263 257 249
316 316 317 317 318 318 317 317 317 318 318 319 319 317 314 310 305 300 296 294 294 295 296 297 298 300 302 303 302 299 299 302 306 310 313 310 306 305 305 306 307 309 311 311 308 304 302 302 304 306 308 309 310 312 313 315 316 318 319 320 320 319 319 319 318 316 316 318 320 321 320 315 308 303 301 299 282 255 246 247 253 258 261 262 259 253
319 319 319 319 319 319 319 320 321 322 322 323 322 320 316 311 307 303 301 300 299 298 297 297 299 301 302 303 301 298 298 301 304 307 307 304 302 302 304 306 308 310 311 311 308 303 298 297 300 304 307 309 310 311 312 313 315 317 318 318 318 318 318 318 316 315 314 316 319 321 321 317 310 304 303 313 318 296 254 241 241 247 253 257 259 257
320 320 320 320 320 321 322 323 324 324 324 323 321 318 316 314 313 312 311 309 306 302 298 298 300 302 303 302 300 298 297 296 297 299 301 301 300 300 303 305 307 309 310 310 308 305 301 298 299 302 305 308 309 310 311 312 314 316 317 317 317 317 317 316 314 313 313 315 318 321 322 320 312 304 302 319 336 338 305 250 235 235 242 249 256 259
320 320 321 322 323 324 324 325 326 325 324 323 321 319 319 319 319 318 317 315 312 308 304 300 298 298 298 298 297 295 293 292 293 297 301 301 300 300 302 304 307 308 309 309 308 305 302 301 301 302 304 306 308 309 310 311 313 315 316 316 317 317 316 315 313 312 313 315 318 321 322 321 315 306 303 317 332 341 340 311 249 232 233 240 248 255
322 323 325 326 327 328 328 327 327 327 327 325 324 324 323 322 322 321 320 319 318 315 311 306 302 298 295 293 291 291 290 290 293 297 300 299 299 299 301 303 306 309 310 309 307 305 302 302 303 304 304 303 305 307 309 311 313 315 316 317 317 317 316 315 314 313 314 316 318 321 322 321 317 311 308 313 322 332 340 344 327 251 228 231 239 248
327 328 329 329 330 330 330 330 330 330 330 329 328 327 326 326 325 324 324 323 322 321 318 313 308 303 298 294 291 290 289 290 292 295 296 296 296 297 299 302 306 309 311 309 307 305 304 302 303 304 303 302 301 304 308 313 315 317 317 318 318 317 317 317 316 316 316 317 320 321 321 320 318 314 310 311 315 323 333 344 350 340 254 229 231 241
331 332 332 332 332 332 332 331 331 332 332 331 330 329 329 328 328 328 327 326 325 323 320 317 312 307 302 297 293 291 290 290 291 292 292 293 294 295 298 302 305 309 310 310 309 308 305 302 300 300 302 302 304 306 310 314 317 318 320 321 320 320 319 319 319 319 318 319 319 320 319 318 315 312 310 309 311 318 328 340 347 342 310 259 245 246
334 334 334 334 333 333 333 332 333 333 333 332 331 331 330 330 330 329 328 326 324 322 319 317 314 310 306 301 297 294 292 291 290 290 290 291 292 295 298 302 306 308 310 313 314 313 309 304 300 299 300 302 306 310 314 316 318 319 321 322 322 322 322 322 321 319 318 318 318 318 317 316 313 310 308 308 310 315 324 336 343 338 323 289 263 255
336 336 336 334 334 334 334 334 334 334 333 332 332 332 332 331 330 329 327 324 322 320 318 316 314 312 310 308 306 304 300 297 294 292 291 291 293 295 299 303 306 309 313 317 320 319 315 309 307 306 305 304 306 309 313 316 319 321 320 317 316 319 323 323 322 320 319 318 317 317 316 315 311 308 307 307 310 314 320 328 335 337 331 314 289 267
336 335 335 334 336 338 338 337 336 335 334 333 332 332 332 331 330 329 326 324 322 320 320 319 318 316 315 314 315 315 312 308 302 298 296 295 296 299 302 305 307 311 317 322 324 324 322 316 312 311 309 308 307 308 310 314 319 321 319 314 314 317 322 324 324 322 321 319 317 316 315 315 313 309 306 306 308 311 316 322 328 329 326 316 298 280
335 335 334 335 338 339 338 337 336 335 334 333 332 331 332 332 331 329 326 324 322 322 323 324 324 324 322 321 321 321 320 317 313 308 304 303 302 304 306 307 309 314 320 325 326 326 325 321 317 313 311 310 308 308 309 313 319 323 323 320 319 321 322 324 325 324 321 318 315 314 314 316 315 312 306 304 305 308 311 316 320 322 321 315 302 282
336 335 336 338 339 339 338 337 336 335 333 331 330 331 332 333 332 329 326 324 322 322 324 326 327 327 326 325 324 324 324 322 319 316 313 311 310 310 310 310 312 316 321 325 326 326 325 323 320 317 315 315 312 309 309 313 318 323 327 328 325 320 315 320 325 326 322 318 314 314 315 317 316 312 305 301 301 304 308 311 313 314 314 315 306 288
337 338 340 341 340 339 337 336 335 333 331 329 329 330 333 334 333 330 326 324 323 323 325 327 328 327 325 323 323 325 325 325 323 321 318 317 317 316 315 315 315 318 323 326 325 324 324 322 321 321 320 320 316 313 312 314 318 322 328 332 329 322 316 320 325 328 325 321 318 317 318 318 316 310 304 299 298 300 304 306 306 307 311 313 308 296
340 340 340 340 339 336 334 333 332 332 330 329 329 331 334 335 334 331 327 325 324 324 326 327 326 323 320 320 321 323 324 324 324 323 322 321 320 320 320 320 320 322 325 326 326 324 321 320 320 322 324 323 320 316 314 316 319 323 327 332 332 329 327 328 330 329 328 326 323 321 319 317 312 308 304 300 298 298 298 298 300 304 310 315 314 305
340 339 337 337 335 333 331 332 331 331 329 329 329 330 333 333 333 332 329 327 325 325 324 324 322 318 316 317 319 321 322 323 323 323 323 323 323 323 323 324 325 326 327 328 327 326 323 321 322 324 325 323 320 318 318 319 320 322 326 331 333 332 331 332 333 332 331 328 325 323 319 315 310 306 303 299 295 293 291 291 296 303 311 318 319 312
338 336 335 334 333 332 332 332 331 330 329 328 328 329 330 331 331 331 330 329 326 324 322 321 319 316 314 315 317 319 321 322 322 322 323 324 325 327 328 329 329 330 330 329 328 326 325 324 325 325 324 320 317 317 320 323 323 324 325 328 330 332 332 334 335 336 334 331 328 326 323 320 317 312 305 298 293 288 286 287 292 300 310 318 321 315
337 336 335 334 333 332 332 332 331 330 328 327 327 327 328 329 329 328 327 327 326 324 322 320 318 316 315 314 315 317 319 320 321 322 324 327 329 330 331 332 331 331 331 330 328 326 325 325 325 326 325 321 316 315 319 323 324 324 325 325 326 327 329 331 334 336 335 332 329 327 327 327 325 321 313 304 297 290 286 286 290 298 307 316 320 318
337 336 336 335 334 333 333 333 331 329 327 326 325 326 327 329 328 327 326 326 326 325 323 321 318 317 316 315 315 316 318 319 321 322 326 328 331 332 332 332 332 332 331 330 328 326 325 324 324 324 325 324 320 316 317 320 322 323 323 322 321 322 323 326 329 333 334 332 328 325 324 324 324 322 317 312 304 297 291 289 290 296 306 313 318 319
339 338 337 336 334 333 333 332 330 328 326 326 325 325 325 327 327 328 327 327 326 325 323 321 319 316 315 315 316 317 318 320 321 323 325 327 329 330 330 332 333 333 331 330 328 327 326 325 324 324 323 324 322 317 314 315 318 319 319 318 318 319 320 322 326 330 333 332 328 323 321 321 322 323 322 318 311 303 296 291 290 295 304 311 315 318
340 339 338 336 334 333 333 331 329 328 326 326 325 324 324 324 325 327 327 326 325 323 322 321 319 317 315 316 316 317 318 319 320 321 322 324 326 327 328 330 332 331 329 328 328 328 327 326 325 323 322 322 321 317 312 311 312 314 315 316 318 319 320 322 325 329 331 330 327 322 320 320 324 328 329 325 319 312 305 297 294 296 304 310 314 317